Arlington, WA
on Saturday, November 10, 2012

Saturday
Previous Day Next Day
Daily Summary
 ActualAverageRecord
Temperature
Mean Temperature °F °F  
Max Temperature 44°F 58°F 60°F (1997)
Min Temperature 24°F 44°F 24°F (2012)
Degree Days
Heating Degree Days 31    
Moisture
Dew Point 25°F   
Average Humidity 79    
Maximum Humidity 100    
Minimum Humidity 39    
Precipitation
Precipitation 0.00 in in in ()
Wind
Wind Speed 0 mph   
Max Wind Speed 7 mph   
Max Gust Speed mph   
Visibility 8 miles   
Events     
Averages and records for this station are not official NWS values.
Key: T is trace of precipitation, MM is missing value
Source: NWS Daily Summary
Seasonal Weather Averages
Time(PST)TemperatureDew PointHumidity Pressure Visibility Wind DirectionWind SpeedGust SpeedPrecipitationEvents Conditions
12:15 AM 26.6°F 24.8°F 93% 29.98 in 0.5 miles Calm Calm - N/A   Unknown
12:35 AM 26.6°F 23.0°F 86% 29.98 in 2.5 miles Calm Calm - N/A   Partly Cloudy
12:55 AM 28.4°F 26.6°F 93% 29.98 in 0.2 miles Calm Calm - N/A   Overcast
1:15 AM 26.6°F 24.8°F 93% 29.99 in 0.2 miles Calm Calm - N/A   Overcast
1:35 AM 26.6°F 23.0°F 86% 30.00 in 0.5 miles Calm Calm - N/A   Overcast
1:55 AM 26.6°F 26.6°F 100% 30.00 in 0.2 miles Calm Calm - N/A   Overcast
2:15 AM 26.6°F 24.8°F 93% 30.01 in 0.5 miles Calm Calm - N/A   Overcast
2:35 AM 26.6°F 24.8°F 93% 30.01 in 0.2 miles Calm Calm - N/A   Overcast
2:55 AM 26.6°F 24.8°F 93% 30.01 in 8.0 miles Calm Calm - N/A   Mostly Cloudy
3:15 AM 26.6°F 23.0°F 86% 30.01 in 9.0 miles Calm Calm - N/A   Mostly Cloudy
3:35 AM 26.6°F 24.8°F 93% 30.02 in 4.0 miles Calm Calm - N/A   Mostly Cloudy
3:55 AM 26.6°F 24.8°F 93% 30.02 in 8.0 miles Calm Calm - N/A   Scattered Clouds
4:35 AM 26.6°F 24.8°F 93% 30.03 in 6.0 miles Calm Calm - N/A   Mostly Cloudy
4:55 AM 28.4°F 26.6°F 93% 30.04 in 8.0 miles Calm Calm - N/A   Overcast
5:15 AM 28.4°F 24.8°F 86% 30.04 in 10.0 miles Calm Calm - N/A   Overcast
5:35 AM 26.6°F 24.8°F 93% 30.05 in 10.0 miles Calm Calm - N/A   Mostly Cloudy
5:55 AM 24.8°F 23.0°F 93% 30.05 in 8.0 miles Calm Calm - N/A   Partly Cloudy
6:15 AM 26.6°F 24.8°F 93% 30.05 in 10.0 miles Calm Calm - N/A   Partly Cloudy
6:35 AM 26.6°F 24.8°F 93% 30.06 in 5.0 miles Calm Calm - N/A   Clear
6:55 AM 24.8°F 24.8°F 100% 30.06 in 3.0 miles Calm Calm - N/A   Clear
7:15 AM 24.8°F 23.0°F 93% 30.07 in 7.0 miles Calm Calm - N/A   Mostly Cloudy
7:35 AM 24.8°F 23.0°F 93% 30.08 in 10.0 miles Calm Calm - N/A   Overcast
7:55 AM 26.6°F 24.8°F 93% 30.09 in 10.0 miles Calm Calm - N/A   Overcast
8:15 AM 28.4°F 26.6°F 93% 30.09 in 10.0 miles Calm Calm - N/A   Overcast
8:35 AM 28.4°F 26.6°F 93% 30.09 in 10.0 miles Calm Calm - N/A   Overcast
8:55 AM 28.4°F 26.6°F 93% 30.09 in 10.0 miles Calm Calm - N/A   Overcast
9:15 AM 30.2°F 28.4°F 93% 30.09 in 10.0 miles Calm Calm - N/A   Scattered Clouds
9:35 AM 32.0°F 30.2°F 93% 30.10 in 10.0 miles Calm Calm - N/A   Clear
9:55 AM 33.8°F 30.2°F 87% 30.11 in 10.0 miles Calm Calm - N/A   Clear
10:15 AM 33.8°F 30.2°F 87% 30.11 in 10.0 miles Calm Calm - N/A   Clear
10:35 AM 35.6°F 30.2°F 81% 30.12 in 10.0 miles Calm Calm - N/A   Clear
10:55 AM 37.4°F 30.2°F 75% 30.12 in 10.0 miles Calm Calm - N/A   Clear
11:15 AM 39.2°F 33.8°F 81% 30.13 in 10.0 miles Calm Calm - N/A   Clear
11:35 AM 39.2°F 33.8°F 81% 30.13 in 10.0 miles Calm Calm - N/A   Clear
11:55 AM 39.2°F 32.0°F 75% 30.14 in 10.0 miles Calm Calm - N/A   Partly Cloudy
12:15 PM 41.0°F 30.2°F 65% 30.14 in 10.0 miles Calm Calm - N/A   Partly Cloudy
12:35 PM 42.8°F 28.4°F 57% 30.15 in 10.0 miles West 3.5 mph - N/A   Clear
12:55 PM 42.8°F 26.6°F 53% 30.15 in 10.0 miles Calm Calm - N/A   Clear
1:15 PM 42.8°F 26.6°F 53% 30.16 in 10.0 miles NNW 5.8 mph - N/A   Clear
1:35 PM 42.8°F 26.6°F 53% 30.16 in 10.0 miles NW 5.8 mph - N/A   Clear
1:55 PM 42.8°F 24.8°F 49% 30.16 in 10.0 miles Calm Calm - N/A   Clear
2:15 PM 44.6°F 21.2°F 39% 30.16 in 10.0 miles NW 6.9 mph - N/A   Clear
2:35 PM 42.8°F 23.0°F 46% 30.16 in 10.0 miles NW 4.6 mph - N/A   Clear
2:55 PM 42.8°F 21.2°F 42% 30.16 in 10.0 miles NNW 5.8 mph - N/A   Clear
3:15 PM 42.8°F 19.4°F 39% 30.16 in 10.0 miles Calm Calm - N/A   Clear
3:35 PM 42.8°F 21.2°F 42% 30.16 in 10.0 miles Calm Calm - N/A   Clear
3:55 PM 41.0°F 21.2°F 45% 30.17 in 10.0 miles WNW 4.6 mph - N/A   Clear
4:15 PM 39.2°F 21.2°F 49% 30.17 in 10.0 miles WNW 3.5 mph - N/A   Clear
4:35 PM 37.4°F 21.2°F 52% 30.18 in 10.0 miles NW 3.5 mph - N/A   Clear
4:55 PM 33.8°F 21.2°F 60% 30.18 in 10.0 miles WNW 4.6 mph - N/A   Clear
5:15 PM 33.8°F 21.2°F 60% 30.19 in 10.0 miles Calm Calm - N/A   Clear
5:35 PM 35.6°F 21.2°F 56% 30.19 in 10.0 miles Calm Calm - N/A   Clear
5:55 PM 33.8°F 21.2°F 60% 30.19 in 10.0 miles Calm Calm - N/A   Clear
6:15 PM 33.8°F 21.2°F 60% 30.21 in 10.0 miles Calm Calm - N/A   Clear
6:35 PM 32.0°F 23.0°F 69% 30.21 in 10.0 miles Calm Calm - N/A   Clear
6:55 PM 30.2°F 21.2°F 69% 30.21 in 10.0 miles Calm Calm - N/A   Clear
7:15 PM 26.6°F 21.2°F 80% 30.21 in 10.0 miles North - - N/A   Clear
7:35 PM 28.4°F 21.2°F 74% 30.21 in 10.0 miles Calm Calm - N/A   Clear
8:15 PM 28.4°F 24.8°F 86% 30.21 in 10.0 miles Calm Calm - N/A   Clear
8:35 PM 28.4°F 24.8°F 86% 30.22 in 10.0 miles NNW 3.5 mph - N/A   Clear
8:55 PM 26.6°F 24.8°F 93% 30.22 in 10.0 miles Calm Calm - N/A   Clear
9:15 PM 26.6°F 23.0°F 86% 30.22 in 10.0 miles Calm Calm - N/A   Clear
9:35 PM 26.6°F 24.8°F 93% 30.23 in 10.0 miles Calm Calm - N/A   Clear
9:55 PM 26.6°F 24.8°F 93% 30.23 in 10.0 miles Calm Calm - N/A   Clear
10:15 PM 28.4°F 24.8°F 86% 30.24 in 10.0 miles Calm Calm - N/A   Clear
10:35 PM 24.8°F 21.2°F 86% 30.24 in 10.0 miles Calm Calm - N/A   Clear
10:55 PM 26.6°F 23.0°F 86% 30.24 in 10.0 miles Calm Calm - N/A   Clear
11:15 PM 26.6°F 24.8°F 93% 30.24 in 10.0 miles Calm Calm - N/A   Clear
11:35 PM 26.6°F 23.0°F 86% 30.24 in 10.0 miles Calm Calm - N/A   Clear
11:55 PM 26.6°F 24.8°F 93% 30.24 in 10.0 miles Calm Calm - N/A   Clear
Moon Phase
Nov. 10 Nov. 13 Nov. 20 Nov. 28 Dec. 06
Sunrise:07:08 AM (PST) Moon Rise:03:04 AM (PST)11/10
Sunset:04:35 PM (PST) Moon Set:02:38 PM (PST)11/10

Copyright © 2014 The Weather Underground, Inc.